IRIDIUM 19

Last updated on Wed Nov 29 2017 00:19:02 GMT+0000 (Coordinated Universal Time)

1 24965U 97056A 17332.35743835 .00000204 00000-0 65876-4 0 9999 2 24965 86.3982 250.0409 0002123 79.8869 280.2566 14.34221063 56083
UTC large
Height (km)
Speed (km/s)
/
Latitude / Longitude
Inclination (degrees)
Orbital Period (minutes)
Azimuth
Elevation
Range (km)
Doppler Factor

Next 0 passes for location: London (51.5072 / 0.1276)

Sorry there are no passes over London.